FENGYUN 1C DEB, 38159

Orbit data source: Space-Track

FENGYUN 1C DEB, 38159 is space debris in SSO originally from a launch on Mon, 10 May 1999 UTC launched from the Taiyaun Space Center, China (TSC). Fengyun 1C debris stems from the Chinese weather satellite Fengyun-1C, which was intentionally destroyed by a Chinese anti-satellite missile in 2007. This event dramatically increased the amount of space debris, with thousands of trackable fragments posing hazards to satellites and human spaceflight. The Fengyun 1C debris cloud has become a focal point in discussions about space sustainability and the need for international regulations to prevent the creation of new debris.

Loading next visibility...
Identifier
38159, 1999-025ERG
Orbit
SSO
Country
Flag of CNCN / PRC
Related business
Manufacturer
Unknown
Mission
Spacecraft
Bus & Motor
Unknown
Mass
Unknown
Launch date (UTC)
1999-05-10 (27 years ago)
Launch vehicle
Unknown
Launch site
Taiyaun Space Center, China (TSC)
Object type
Payload
Rocket body
Debris
Shape & HBR
Unknown shape, 0.1 m
Radar Cross Section
Small (<0.1 m²)

Expand to show TLE details & history
Last TLE update: 2 weeks ago

TLE from 2 weeks ago
0 FENGYUN 1C DEB
1 38159U 99025ERG 26243.50695702  .00000549  00000-0  37318-3 0  9995
2 38159  99.2924 146.2234 0056481 340.8724  19.0320 14.03807553867841
Epoch: 2026-08-31T12:10Z
TLE epoch observation values (Epoch: 2026-08-31T12:10:01.086Z)
Latitude
-0.00009°
Longitude
-15.96831°
Altitude
844.773 km
Speed
7.45 km/s
True Right ascension
09h 44m 53s
True Declination
0° 00' 00"
Sunlit
Object was in daylight at epoch
Visualization orbit readout
Latitude
Unknown
Longitude
Unknown
Altitude
Unknown
Speed
Unknown
Apparent Right ascension
Unknown
Apparent Declination
Unknown
Sunlit
N/A
Visualization observer readout
Local Sidereal Time
19:44:01
Azimuth
Unknown
Elevation
Unknown
Doppler factor
Unknown
Orbital elements
Apogee altitude
918.831 km
Perigee altitude
836.866 km
Semi-major axis
7,255.986 km
Eccentricity
0.00565
Inclination
99.2924°
RAAN
146.2234°
Arg. of periapsis
340.8724°
True anomaly
19.24447°
Mean anomaly
19.032°
Eccentric anomaly
19.1381°
Mean motion
3.51155 °/min
Orbital period
102.52 mins
BSTAR
0.00037318
Loading maneuver chart data...
Computing Atmospheric mass density...

Documentation

Showing up to 5 results
|